This demonstration page uses our WeatherBlox Daily Observations layout. Learn more.

Left ArrowRight Arrow

38.25424, -85.75941

Hourly Observations for November 30, 2021

Temp ( °F °C ) Dew Point ( °F °C ) Humidity (%) Winds ( mph kmh ) Pressure ( in mb ) Visibility ( mi km ) Precip ( " mm )
12:56 am 00:56 Partly Cloudy 45 7.2 19 -7.2 35 35 SSW 9 15 29.97 1015 10 16 N/A
1:56 am 01:56 Partly Cloudy 45 7.2 22 -5.6 40 40 SW 13 20 29.97 1015 10 16 N/A
2:56 am 02:56 Mostly Clear 45 7.2 24 -4.4 44 44 WSW 9 15 29.96 1015 10 16 N/A
3:56 am 03:56 Mostly Clear 46 7.8 27 -2.8 47 47 WSW 13 20 29.97 1015 10 16 N/A
4:56 am 04:56 Mostly Clear 46 7.8 28 -2.2 50 50 SW 10 17 29.96 1015 10 16 N/A
5:56 am 05:56 Mostly Clear 45 7.2 30 -1.1 56 56 SW 9 15 29.98 1015 10 16 N/A
6:56 am 06:56 Mostly Clear 44 6.7 30 -1.1 58 58 SW 9 15 30.00 1016 10 16 N/A
7:56 am 07:56 Mostly Sunny 43 6.1 31 -0.6 63 63 SW 6 9 30.03 1017 10 16 N/A
8:56 am 08:56 Sunny 46 7.8 32 undefined 58 58 SW 5 7 30.05 1018 10 16 N/A
9:56 am 09:56 Partly Cloudy 49 9.4 34 1.1 56 56 W 7 11 30.07 1018 10 16 N/A
10:56 am 10:56 Mostly Cloudy 52 11.1 35 1.7 53 53 WNW 7 11 30.09 1019 10 16 N/A
11:56 am 11:56 Mostly Cloudy 54 12.2 36 2.2 51 51 NNW 3 6 30.09 1019 10 16 N/A
12:56 pm 12:56 Mostly Cloudy 56 13.3 37 2.8 49 49 W 5 7 30.10 1019 10 16 N/A
1:56 pm 13:56 Mostly Cloudy 59 15 37 2.8 44 44 WNW 8 13 30.09 1019 10 16 N/A
2:56 pm 14:56 Mostly Cloudy 58 14.4 37 2.8 46 46 W 8 13 30.08 1019 10 16 N/A
3:56 pm 15:56 Mostly Cloudy 57 13.9 37 2.8 47 47 W 7 11 30.09 1019 10 16 N/A
4:56 pm 16:56 Mostly Cloudy 54 12.2 37 2.8 53 53 WSW 7 11 30.09 1019 10 16 N/A
5:56 pm 17:56 Mostly Cloudy 53 11.7 36 2.2 52 52 WSW 6 9 30.11 1020 10 16 N/A
6:56 pm 18:56 Mostly Cloudy 51 10.6 36 2.2 56 56 W 5 7 30.14 1021 10 16 N/A
7:56 pm 19:56 Partly Cloudy 48 8.9 36 2.2 63 63 W 6 9 30.14 1021 10 16 N/A
8:56 pm 20:56 Mostly Clear 46 7.8 36 2.2 68 68 WSW 3 6 30.15 1021 10 16 N/A
9:56 pm 21:56 Clear 45 7.2 35 1.7 68 68 N N/A 30.15 1021 10 16 N/A
10:56 pm 22:56 Clear 42 5.6 35 1.7 76 76 SE 3 6 30.14 1021 10 16 N/A
11:56 pm 23:56 Mostly Clear 42 5.6 34 1.1 73 73 N N/A 30.14 1021 10 16 N/A

Powered by AerisWeather